Location: Oroua River
(40.4333°S, 175.4333°E)
Time: 14:15:45
(UTC+00:00)

Resurs 1-4 Rocket - Pass Details

Date: 03 February 2023
Orbit: 800 x 813 km, 98.7° (Epoch: 30 March)

Event Time Altitude Azimuth Distance (km) Brightness Sun altitude
Exits shadow 14:27:53 15° 244° (WSW) 2,117 4.2 -27.0°
Drops below altitude 10° 14:29:21 10° 230° (SW) 2,430 4.7 -26.9°
Sets 14:32:31 0° 211° (SSW) 3,372 5.7 -26.6°
